Location: Azat
(46.0765°N, 1.7600°E)
Time: 11:50:23
(UTC+00:00)

Cosmos 1535 Rocket - Pass Details

Date: 09 April 2020
Orbit: 949 x 1003 km, 83.0° (Epoch: 05 June)

Event Time Altitude Azimuth Distance (km) Brightness Sun altitude
Rises 21:38:52 0° 353° (N) 3,648 8.4 -28.0°
Reaches altitude 10° 21:41:24 10° 356° (N) 2,704 7.5 -28.3°
Enters shadow 21:47:19 66° 65° (ENE) 1,054 4.5 -28.9°
